Radiation Dose at Monitoring Post of Fukushima Daini Nuclear Power Station
Date,Time,MP-1(microSv/h),MP-2(microSv/h),MP-3(microSv/h),MP-4(microSv/h),MP-5(microSv/h),MP-6(microSv/h),MP-7(microSv/h),Wind Direction,Wind Velocity(m/s),Rain
2024/03/18,00:00,0.147,0.130,0.211,0.200,0.208,0.117,0.077,west-northwest,14.7,No
2024/03/18,00:10,0.149,0.130,0.210,0.200,0.208,0.117,0.077,west-northwest,16.4,No
2024/03/18,00:20,0.147,0.130,0.210,0.200,0.208,0.117,0.076,west-northwest,14.7,No
2024/03/18,00:30,0.149,0.130,0.211,0.200,0.208,0.118,0.076,west-northwest,12.8,No
2024/03/18,00:40,0.148,0.130,0.210,0.199,0.206,0.118,0.076,northwest,10.4,No
2024/03/18,00:50,0.148,0.129,0.210,0.200,0.208,0.118,0.076,west-northwest,7.1,No
2024/03/18,01:00,0.148,0.130,0.210,0.201,0.208,0.117,0.076,west-northwest,6.7,No
2024/03/18,01:10,0.149,0.130,0.209,0.199,0.206,0.117,0.077,west-northwest,5.8,No
2024/03/18,01:20,0.149,0.129,0.211,0.201,0.208,0.118,0.077,northwest,5.5,No
2024/03/18,01:30,0.148,0.129,0.210,0.200,0.207,0.117,0.076,west-northwest,10.4,No
2024/03/18,01:40,0.148,0.129,0.209,0.198,0.207,0.117,0.076,west-northwest,11.7,No
2024/03/18,01:50,0.148,0.129,0.210,0.198,0.208,0.117,0.077,west-northwest,12.6,No
2024/03/18,02:00,0.148,0.129,0.211,0.199,0.206,0.116,0.076,west-northwest,10.0,No
2024/03/18,02:10,0.148,0.129,0.209,0.199,0.208,0.117,0.077,west-northwest,12.2,No
2024/03/18,02:20,0.148,0.130,0.210,0.199,0.206,0.117,0.076,west-northwest,12.6,No
2024/03/18,02:30,0.148,0.129,0.210,0.198,0.207,0.116,0.076,west-northwest,11.8,No
2024/03/18,02:40,0.148,0.129,0.209,0.200,0.207,0.117,0.076,west,11.2,No
2024/03/18,02:50,0.149,0.129,0.211,0.200,0.208,0.117,0.076,west-northwest,7.4,No
2024/03/18,03:00,0.147,0.130,0.211,0.199,0.206,0.116,0.075,northwest,6.3,No
2024/03/18,03:10,0.148,0.130,0.208,0.199,0.206,0.117,0.076,west-northwest,9.3,No
2024/03/18,03:20,0.147,0.129,0.210,0.199,0.207,0.117,0.076,west-northwest,9.2,No
2024/03/18,03:30,0.148,0.129,0.210,0.200,0.206,0.116,0.076,west-northwest,11.1,No
2024/03/18,03:40,0.147,0.129,0.210,0.199,0.206,0.116,0.077,west-northwest,7.7,No
2024/03/18,03:50,0.148,0.130,0.210,0.199,0.208,0.117,0.076,west-northwest,6.8,No
2024/03/18,04:00,0.147,0.130,0.210,0.199,0.206,0.116,0.075,west,6.2,No
2024/03/18,04:10,0.148,0.129,0.211,0.200,0.206,0.116,0.076,northwest,7.6,No
2024/03/18,04:20,0.148,0.128,0.209,0.199,0.207,0.117,0.076,northwest,9.6,No
2024/03/18,04:30,0.148,0.129,0.210,0.199,0.206,0.116,0.075,west-northwest,6.7,No
2024/03/18,04:40,0.147,0.130,0.211,0.199,0.206,0.116,0.075,northwest,4.9,No
2024/03/18,04:50,0.147,0.128,0.209,0.199,0.205,0.117,0.076,west,7.1,No
2024/03/18,05:00,0.147,0.130,0.210,0.199,0.207,0.116,0.076,west-northwest,5.6,No
2024/03/18,05:10,0.147,0.130,0.210,0.200,0.207,0.115,0.075,west-northwest,6.2,No
2024/03/18,05:20,0.147,0.129,0.210,0.198,0.206,0.116,0.076,west-northwest,8.2,No
2024/03/18,05:30,0.146,0.128,0.209,0.198,0.206,0.117,0.075,northwest,7.3,No
2024/03/18,05:40,0.147,0.129,0.210,0.198,0.206,0.116,0.075,northwest,5.1,No
2024/03/18,05:50,0.147,0.129,0.210,0.199,0.206,0.117,0.076,west-northwest,4.7,No
2024/03/18,06:00,0.149,0.128,0.210,0.200,0.206,0.116,0.076,west-northwest,6.1,No
2024/03/18,06:10,0.147,0.128,0.209,0.198,0.207,0.117,0.076,west,8.5,No
2024/03/18,06:20,0.147,0.129,0.210,0.197,0.206,0.116,0.076,west-northwest,4.6,No
2024/03/18,06:30,0.147,0.129,0.210,0.199,0.206,0.117,0.076,northwest,7.1,No
2024/03/18,06:40,0.147,0.128,0.209,0.198,0.206,0.117,0.076,northwest,6.0,No
2024/03/18,06:50,0.148,0.128,0.209,0.199,0.205,0.117,0.076,northwest,7.7,No
2024/03/18,07:00,0.147,0.129,0.210,0.197,0.206,0.116,0.075,west-northwest,8.5,No
2024/03/18,07:10,0.146,0.129,0.209,0.199,0.207,0.116,0.076,northwest,5.4,No
2024/03/18,07:20,0.147,0.128,0.210,0.199,0.205,0.116,0.076,northwest,4.8,No
2024/03/18,07:30,0.147,0.129,0.209,0.198,0.206,0.116,0.075,north-northwest,6.7,No
2024/03/18,07:40,0.147,0.128,0.209,0.198,0.205,0.116,0.075,west-northwest,6.5,No
2024/03/18,07:50,0.148,0.128,0.210,0.198,0.205,0.116,0.075,north-northwest,4.7,No
2024/03/18,08:00,0.148,0.127,0.210,0.198,0.205,0.116,0.075,northwest,5.7,No
2024/03/18,08:10,0.147,0.129,0.210,0.198,0.207,0.116,0.075,northwest,7.4,No
2024/03/18,08:20,0.147,0.129,0.209,0.199,0.205,0.116,0.075,northwest,7.2,No
2024/03/18,08:30,0.147,0.129,0.209,0.197,0.205,0.116,0.075,west-northwest,5.6,No
2024/03/18,08:40,0.146,0.128,0.208,0.199,0.206,0.116,0.075,west-northwest,5.3,No
2024/03/18,08:50,0.147,0.129,0.208,0.197,0.207,0.116,0.076,west-northwest,6.8,No
2024/03/18,09:00,0.147,0.129,0.209,0.197,0.205,0.116,0.075,west-northwest,7.6,No
2024/03/18,09:10,0.147,0.128,0.209,0.198,0.205,0.117,0.075,west-northwest,7.0,No
2024/03/18,09:20,0.147,0.129,0.208,0.197,0.206,0.116,0.076,west-northwest,7.8,No
2024/03/18,09:30,0.147,0.128,0.208,0.198,0.205,0.115,0.075,west,8.4,No
2024/03/18,09:40,0.147,0.128,0.209,0.198,0.206,0.116,0.076,west,10.0,No
2024/03/18,09:50,0.146,0.128,0.209,0.197,0.207,0.115,0.075,west-northwest,8.4,No
2024/03/18,10:00,0.147,0.128,0.209,0.199,0.206,0.116,0.076,west-northwest,8.1,No
2024/03/18,10:10,0.147,0.128,0.209,0.197,0.205,0.116,0.075,west-northwest,12.2,No
2024/03/18,10:20,0.147,0.129,0.209,0.198,0.205,0.115,0.075,northwest,8.3,No
2024/03/18,10:30,0.147,0.128,0.208,0.199,0.206,0.116,0.076,northwest,9.6,No
2024/03/18,10:40,0.148,0.129,0.210,0.198,0.206,0.116,0.075,west-northwest,9.0,No
2024/03/18,10:50,0.146,0.129,0.209,0.199,0.206,0.116,0.076,west-northwest,9.8,No
2024/03/18,11:00,0.147,0.128,0.208,0.198,0.206,0.115,0.075,west-northwest,12.3,No
2024/03/18,11:10,0.147,0.129,0.211,0.198,0.206,0.115,0.076,northwest,11.7,No
2024/03/18,11:20,0.148,0.128,0.209,0.199,0.208,0.116,0.075,northwest,15.1,No
2024/03/18,11:30,0.147,0.128,0.210,0.198,0.206,0.116,0.076,west-northwest,11.5,No
2024/03/18,11:40,0.147,0.128,0.210,0.199,0.207,0.116,0.076,west-northwest,13.4,No
2024/03/18,11:50,0.148,0.129,0.209,0.199,0.207,0.116,0.075,west-northwest,12.6,No
2024/03/18,12:00,0.148,0.129,0.209,0.199,0.206,0.116,0.075,northwest,11.7,No
2024/03/18,12:10,0.147,0.129,0.209,0.199,0.206,0.116,0.077,west-northwest,8.8,No
2024/03/18,12:20,0.148,0.130,0.210,0.199,0.205,0.117,0.076,northwest,12.0,No
2024/03/18,12:30,0.147,0.129,0.208,0.199,0.207,0.118,0.076,west,12.8,No
2024/03/18,12:40,0.149,0.129,0.210,0.199,0.205,0.117,0.076,northwest,12.3,No
2024/03/18,12:50,0.147,0.128,0.208,0.199,0.206,0.116,0.075,west-northwest,10.0,No
2024/03/18,13:00,0.148,0.127,0.210,0.199,0.206,0.116,0.075,northwest,9.8,No
2024/03/18,13:10,0.148,0.129,0.210,0.199,0.207,0.116,0.076,northwest,3.2,No
2024/03/18,13:20,0.148,0.129,0.210,0.199,0.207,0.117,0.076,west-northwest,3.9,No
2024/03/18,13:30,0.148,0.129,0.210,0.197,0.206,0.116,0.076,northwest,5.5,No
2024/03/18,13:40,0.146,0.129,0.210,0.199,0.206,0.116,0.076,west-northwest,9.2,No
2024/03/18,13:50,0.148,0.129,0.209,0.197,0.206,0.116,0.076,west-northwest,8.4,No
2024/03/18,14:00,0.147,0.129,0.210,0.200,0.207,0.117,0.076,west-northwest,8.4,No
2024/03/18,14:10,0.147,0.129,0.210,0.198,0.205,0.116,0.076,west-northwest,10.9,Yes
2024/03/18,14:20,0.148,0.128,0.209,0.199,0.206,0.116,0.076,west-northwest,10.9,No
2024/03/18,14:30,0.147,0.127,0.211,0.198,0.205,0.116,0.075,west-northwest,12.6,Yes
2024/03/18,14:40,0.147,0.129,0.211,0.199,0.207,0.117,0.076,west-northwest,12.3,Yes
2024/03/18,14:50,0.149,0.129,0.211,0.200,0.207,0.116,0.076,west-northwest,10.6,No
2024/03/18,15:00,0.148,0.128,0.211,0.198,0.206,0.116,0.076,west-northwest,11.5,No
2024/03/18,15:10,0.148,0.129,0.211,0.199,0.208,0.115,0.075,west-northwest,6.7,No
2024/03/18,15:20,0.149,0.129,0.211,0.199,0.207,0.116,0.076,west-northwest,6.1,No
2024/03/18,15:30,0.148,0.130,0.211,0.200,0.208,0.117,0.076,west,6.7,No
2024/03/18,15:40,0.148,0.130,0.211,0.199,0.207,0.117,0.076,west-northwest,6.7,No
2024/03/18,15:50,0.148,0.130,0.212,0.200,0.206,0.117,0.076,west-northwest,5.4,No
2024/03/18,16:00,0.148,0.129,0.210,0.198,0.207,0.117,0.076,northwest,6.1,No
2024/03/18,16:10,0.148,0.129,0.212,0.198,0.208,0.116,0.076,northwest,10.3,No
2024/03/18,16:20,0.148,0.130,0.210,0.198,0.206,0.117,0.076,northwest,10.4,No
2024/03/18,16:30,0.148,0.128,0.211,0.199,0.207,0.116,0.075,west-northwest,11.1,No
2024/03/18,16:40,0.147,0.129,0.210,0.200,0.207,0.118,0.076,west-northwest,9.2,No
2024/03/18,16:50,0.149,0.129,0.211,0.199,0.206,0.117,0.077,west-northwest,10.6,No
2024/03/18,17:00,0.148,0.128,0.212,0.199,0.207,0.118,0.076,west-northwest,9.2,No
2024/03/18,17:10,0.148,0.129,0.210,0.199,0.206,0.117,0.076,west-northwest,10.1,No
2024/03/18,17:20,0.149,0.129,0.211,0.200,0.206,0.116,0.075,northwest,5.4,No
2024/03/18,17:30,0.149,0.130,0.211,0.199,0.206,0.116,0.076,north-northwest,4.5,No
2024/03/18,17:40,0.149,0.130,0.210,0.199,0.207,0.117,0.076,northwest,4.5,No
2024/03/18,17:50,0.148,0.129,0.211,0.201,0.206,0.117,0.076,northwest,5.6,No
2024/03/18,18:00,0.148,0.130,0.211,0.200,0.207,0.117,0.076,northwest,4.3,No
2024/03/18,18:10,0.149,0.130,0.211,0.200,0.207,0.117,0.076,north-northwest,4.5,No
2024/03/18,18:20,0.149,0.129,0.211,0.200,0.206,0.117,0.075,northwest,4.0,No
2024/03/18,18:30,0.148,0.129,0.210,0.199,0.207,0.117,0.076,north-northwest,2.7,No
2024/03/18,18:40,0.147,0.129,0.211,0.199,0.207,0.117,0.076,north-northwest,5.3,No
2024/03/18,18:50,0.148,0.129,0.211,0.201,0.206,0.117,0.076,northwest,3.6,No
2024/03/18,19:00,0.149,0.129,0.211,0.199,0.208,0.117,0.075,north-northwest,2.3,No
2024/03/18,19:10,0.149,0.129,0.211,0.200,0.207,0.117,0.077,north-northwest,4.2,No
2024/03/18,19:20,0.148,0.129,0.212,0.200,0.207,0.117,0.076,northwest,2.5,No
2024/03/18,19:30,0.148,0.129,0.212,0.200,0.206,0.117,0.076,west-northwest,2.3,No
2024/03/18,19:40,0.148,0.130,0.212,0.200,0.207,0.116,0.075,north-northwest,4.7,No
2024/03/18,19:50,0.147,0.129,0.211,0.200,0.206,0.116,0.076,northwest,4.5,No
2024/03/18,20:00,0.148,0.130,0.212,0.200,0.204,0.116,0.076,north-northwest,5.0,No
2024/03/18,20:10,0.148,0.129,0.210,0.200,0.206,0.117,0.076,northwest,3.5,No
2024/03/18,20:20,0.148,0.128,0.210,0.199,0.205,0.117,0.076,northwest,2.6,No
2024/03/18,20:30,0.147,0.129,0.210,0.200,0.206,0.116,0.076,northwest,2.8,No
2024/03/18,20:40,0.147,0.130,0.210,0.200,0.206,0.117,0.075,northwest,8.2,No
2024/03/18,20:50,0.148,0.129,0.210,0.199,0.206,0.117,0.076,west-northwest,6.8,No
2024/03/18,21:00,0.149,0.129,0.210,0.199,0.206,0.117,0.076,west-northwest,7.7,No
2024/03/18,21:10,0.148,0.128,0.211,0.200,0.206,0.116,0.076,west-northwest,9.2,No
2024/03/18,21:20,0.148,0.130,0.211,0.199,0.206,0.116,0.076,west-northwest,5.7,No
2024/03/18,21:30,0.148,0.129,0.211,0.200,0.207,0.117,0.076,west-northwest,6.8,No
2024/03/18,21:40,0.149,0.129,0.211,0.198,0.204,0.116,0.076,west-northwest,5.7,No
2024/03/18,21:50,0.148,0.130,0.210,0.199,0.206,0.117,0.075,west-northwest,6.0,No
2024/03/18,22:00,0.148,0.129,0.211,0.199,0.206,0.117,0.075,northwest,7.2,No
2024/03/18,22:10,0.148,0.130,0.211,0.200,0.207,0.116,0.076,northwest,7.9,No
2024/03/18,22:20,0.148,0.129,0.212,0.201,0.207,0.116,0.076,northwest,5.3,No
2024/03/18,22:30,0.148,0.130,0.211,0.199,0.206,0.116,0.076,north-northwest,4.4,No
2024/03/18,22:40,0.148,0.130,0.210,0.200,0.207,0.117,0.076,northwest,4.3,No
2024/03/18,22:50,0.147,0.129,0.211,0.200,0.208,0.117,0.076,northwest,4.0,No
2024/03/18,23:00,0.148,0.129,0.211,0.199,0.207,0.116,0.076,northwest,6.5,No
2024/03/18,23:10,0.148,0.129,0.211,0.200,0.207,0.117,0.076,west-northwest,8.6,No
2024/03/18,23:20,0.148,0.129,0.211,0.200,0.206,0.116,0.076,northwest,8.4,No
2024/03/18,23:30,0.148,0.129,0.211,0.200,0.207,0.118,0.075,northwest,5.5,No
2024/03/18,23:40,0.148,0.130,0.212,0.200,0.207,0.117,0.076,northwest,3.5,No
2024/03/18,23:50,0.148,0.130,0.211,0.201,0.206,0.116,0.076,northwest,1.5,No
